Wetbulb
59.27 59.59 59.49 59.43 59.05 59.19 58.60 58.10 58.23 58.49 59.00 59.23 59.25 59.27 59.19 60.40 60.04 56.29 51.24 56.81 57.23 60.04 60.33 58.65 57.48 54.87 55.72 54.13 54.76 53.17 43.95 41.22 42.88 44.98 48.11 52.15 51.91 55.29 54.79 53.20 53.66 52.20 52.24 59.53 62.53
58.81 58.94 59.33 59.49 59.38 59.24 59.03 59.01 59.17 59.10 58.96 59.07 59.30 59.07 59.23 59.89 55.21 51.76 57.62 61.65 61.22 61.14 56.88 54.36 53.13 52.98 50.45 51.02 51.49 47.89 42.79 44.38 47.60 47.66 47.04 52.05 52.81 53.04 51.88 51.71 49.57 50.37 60.03 60.91 59.46
58.76 58.59 58.76 59.11 59.26 58.80 58.39 58.77 58.55 58.06 58.13 58.49 57.88 58.36 59.63 58.48 49.52 49.25 60.15 61.96 61.76 61.51 58.41 56.13 55.17 52.76 48.36 49.31 49.38 47.94 43.10 48.15 48.27 51.30 51.48 52.06 51.52 53.39 51.29 48.95 50.70 49.53 56.16 57.38 57.00
58.56 58.15 58.18 58.39 58.42 58.53 58.28 58.15 58.17 56.97 57.19 57.55 58.35 58.50 59.84 55.07 38.13 54.43 60.72 62.04 61.82 60.37 57.53 54.74 52.65 48.80 46.27 44.34 49.13 44.03 47.72 48.23 49.75 50.43 50.83 50.94 52.94 51.53 51.72 47.60 52.75 53.94 57.42 56.67 56.18
58.34 58.15 57.66 57.85 57.91 57.96 57.98 57.24 57.61 56.31 56.66 56.84 56.63 57.59 55.71 48.37 47.03 57.29 60.81 60.33 59.22 57.80 54.57 52.77 49.39 48.42 44.44 45.44 46.93 45.39 46.18 48.17 48.99 49.18 49.99 52.49 50.23 49.58 47.46 49.67 53.37 55.40 56.65 55.48 56.16
58.14 58.02 57.78 57.56 57.76 57.50 57.51 56.56 56.54 56.21 56.01 56.53 56.11 55.25 50.84 42.94 53.42 57.96 57.30 57.58 57.01 55.28 53.81 53.41 50.24 51.18 47.32 45.77 45.24 47.16 47.22 46.81 48.14 48.73 49.78 49.65 49.04 50.06 47.23 50.20 52.73 53.79 54.21 55.26 55.76
58.00 57.82 57.59 57.42 57.50 57.53 57.72 57.29 55.72 55.24 55.60 56.54 56.17 53.99 47.55 45.38 54.76 56.50 56.77 56.07 56.69 55.48 51.85 53.64 52.25 49.47 49.08 45.28 48.88 47.31 43.35 44.93 46.31 47.68 46.60 48.60 44.96 45.33 48.16 50.92 51.33 52.67 54.42 55.00 55.20
57.61 57.48 57.27 57.06 57.06 57.14 57.31 57.10 55.97 55.27 56.00 56.39 55.26 52.30 43.78 53.29 55.15 54.49 55.44 54.07 55.68 54.31 54.17 53.67 52.58 48.97 49.05 49.32 46.47 43.34 42.70 37.35 45.02 46.92 45.98 45.29 40.53 45.84 48.43 49.49 48.87 50.94 52.41 53.65 53.93
57.15 57.11 56.89 56.66 56.88 57.10 57.27 56.04 57.27 56.12 56.34 56.60 50.93 47.79 42.38 54.05 49.56 52.18 52.25 51.39 52.72 52.31 52.86 53.43 50.36 46.40 48.00 41.53 39.28 40.09 34.44 37.30 40.33 46.54 44.85 44.30 41.58 44.91 47.34 48.70 48.18 49.04 49.63 51.23 51.93
56.56 56.62 56.37 56.31 56.83 56.94 56.22 55.40 56.54 56.80 56.36 55.49 52.04 44.17 45.85 44.23 49.48 50.77 51.79 52.61 49.83 49.45 47.77 47.45 44.25 41.64 42.10 37.44 30.93 34.30 35.64 38.54 37.64 42.00 43.96 42.02 41.82 44.27 45.54 46.16 46.99 47.00 47.70 48.82 50.26
56.16 56.00 55.86 56.33 56.57 56.57 55.53 53.65 49.72 47.84 48.85 43.38 43.73 42.56 44.09 48.16 51.20 48.12 50.29 48.61 48.84 46.42 39.99 43.08 37.99 35.34 38.86 40.48 41.54 40.73 38.73 37.63 40.71 43.83 42.19 42.31 41.54 43.18 44.78 44.25 44.50 46.00 46.26 47.09 48.42
55.64 55.39 55.48 55.68 55.99 56.01 54.33 48.72 47.41 49.42 41.84 47.63 46.88 46.14 47.95 48.83 42.80 45.60 49.51 42.92 42.20 39.37 41.88 38.73 35.51 41.74 44.07 42.99 41.29 40.26 38.45 36.73 39.19 42.37 40.50 42.69 42.25 42.86 44.22 43.72 44.63 45.65 45.11 46.02 46.68
55.06 54.96 54.92 55.17 55.48 53.52 51.26 48.54 53.02 51.74 43.36 44.42 47.40 46.31 45.80 47.45 42.72 42.70 46.19 43.16 39.75 38.82 39.02 36.91 40.04 44.12 42.01 40.54 39.30 39.44 37.15 36.92 37.08 39.54 39.77 41.26 38.29 39.47 42.58 44.27 45.86 46.00 45.65 45.42 45.87
54.20 54.25 54.49 54.82 51.30 52.85 50.45 52.30 53.44 52.32 39.00 38.28 42.11 45.77 47.36 46.88 40.04 47.93 47.17 45.50 41.55 37.68 40.47 38.73 42.33 40.79 39.21 39.27 39.58 36.23 39.50 42.07 38.91 35.49 29.76 37.35 29.60 38.51 40.18 40.46 43.06 43.63 43.61 43.68 44.75
54.40 54.01 53.92 53.53 50.64 49.95 50.61 53.19 53.28 48.68 23.38 40.93 42.79 50.88 48.10 43.75 43.78 44.77 49.92 45.44 38.65 39.84 39.80 36.11 38.31 38.65 38.75 38.03 39.44 37.76 41.57 40.95 39.80 36.95 33.65 32.68 29.42 36.94 41.06 38.08 40.37 41.34 43.21 44.36 44.64
54.26 54.04 53.64 54.11 53.11 52.04 53.19 53.03 49.16 36.50 21.36 37.98 44.07 42.63 41.61 43.40 43.24 45.30 44.36 46.63 44.92 41.19 40.75 39.09 43.34 40.66 39.11 41.04 40.48 41.41 39.44 40.14 38.88 36.00 28.17 28.91 31.33 31.84 34.95 39.17 40.52 42.65 43.55 45.31 45.33
53.91 53.80 51.57 52.76 49.47 53.31 52.75 48.34 37.95 28.03 39.24 36.47 37.89 42.02 40.95 39.52 39.86 41.93 39.70 37.33 35.37 31.86 31.47 37.82 38.12 40.63 42.30 37.40 39.72 38.34 34.03 26.81 26.42 24.13 25.05 31.54 27.35 33.91 36.57 39.27 39.92 41.39 42.56 43.68 44.84
53.26 52.81 52.89 52.82 53.25 52.79 50.05 41.72 27.29 34.78 35.91 41.59 40.06 40.32 37.75 39.30 39.21 39.50 37.97 34.84 38.70 37.67 33.11 31.36 25.94 36.99 40.74 37.84 34.15 35.45 33.03 29.66 23.47 22.15 24.09 28.46 23.71 33.24 36.91 38.94 40.57 43.54 43.73 43.80 44.23
52.03 51.93 52.52 53.33 53.12 51.41 44.73 35.11 32.57 36.30 39.42 38.13 39.62 36.28 35.74 38.66 37.40 37.32 35.64 35.18 36.46 37.71 30.85 30.25 28.64 39.39 39.56 39.57 37.51 34.71 30.60 33.91 28.61 25.44 26.58 25.97 32.64 37.15 38.26 37.45 39.64 41.09 42.98 42.26 43.35
51.35 51.81 51.15 52.63 52.64 48.26 42.61 35.99 36.84 41.44 41.45 40.97 34.40 36.88 32.43 35.23 35.59 35.40 34.32 37.15 37.67 39.29 38.29 35.45 27.90 37.37 38.92 39.81 38.49 34.64 36.94 30.29 30.87 22.83 23.22 24.95 28.02 30.91 34.34 36.27 39.94 39.59 40.47 42.18 43.58
51.19 47.38 50.38 51.99 50.37 45.47 38.38 35.78 40.73 43.30 42.47 39.16 37.39 36.29 36.30 35.67 36.17 34.10 34.98 36.93 39.53 39.43 39.90 36.78 34.99 30.76 36.11 33.53 33.05 33.59 32.64 32.24 32.83 29.53 24.70 23.41 27.79 35.44 36.56 38.49 38.10 39.75 42.11 42.12 43.43
50.26 45.16 51.61 50.65 44.57 42.87 37.77 40.41 40.82 41.81 43.71 41.93 40.90 39.68 37.21 37.38 35.83 35.19 34.83 36.83 40.69 40.04 35.84 36.14 34.99 26.77 30.67 35.75 36.89 35.09 33.90 33.39 29.01 26.18 27.06 26.21 25.78 37.79 38.23 38.94 39.34 39.54 41.81 42.80 43.69
46.68 45.84 51.93 49.48 40.31 37.93 40.01 40.86 41.69 41.29 40.78 40.64 39.75 40.52 39.93 36.84 33.68 36.72 36.96 40.37 41.24 38.93 34.27 36.47 32.93 23.84 26.00 31.11 33.92 32.29 34.69 34.14 34.05 32.20 27.08 25.41 27.55 36.55 36.88 37.91 39.79 38.68 39.17 42.40 43.52
45.52 43.77 47.14 46.68 43.79 40.65 38.40 38.08 38.50 42.05 41.20 41.46 40.17 40.67 38.79 36.14 38.05 35.17 36.38 39.75 39.71 39.26 41.28 38.97 33.60 29.51 25.80 28.24 32.83 28.84 32.20 33.19 32.74 25.97 28.64 27.82 28.85 32.01 35.25 36.22 37.25 37.11 37.74 38.01 40.15
46.15 41.22 41.48 38.82 39.52 39.28 39.38 38.25 37.23 37.02 40.47 40.66 38.90 38.90 36.76 33.82 34.60 34.27 36.29 37.39 39.17 41.59 37.28 35.82 29.31 28.31 30.69 32.06 32.18 31.60 32.76 32.00 29.59 31.13 26.57 28.85 30.67 33.82 34.35 34.88 35.65 36.49 38.24 38.11 38.43
43.65 42.10 41.97 40.28 40.46 39.58 37.83 37.26 37.88 38.40 38.43 37.36 37.20 38.68 38.21 34.50 35.18 34.10 36.21 35.17 33.72 36.23 34.39 36.72 29.69 28.60 25.98 30.70 30.16 27.35 32.03 33.61 33.09 32.72 31.69 31.33 30.56 35.05 36.36 36.76 37.63 37.26 38.42 38.36 38.71
46.65 45.90 43.12 39.39 39.51 37.54 37.26 37.95 38.97 39.53 39.87 40.54 39.07 38.08 36.91 37.13 38.91 37.90 38.00 37.73 35.53 34.31 34.03 33.02 30.37 27.19 25.00 27.48 28.67 25.91 30.17 31.48 31.82 33.76 33.22 28.85 32.07 35.16 36.36 38.04 37.34 37.05 38.20 38.27 39.06
MSLP
1017.54 1017.17 1016.96 1016.54 1016.22 1016.15 1015.84 1015.60 1015.30 1015.03 1014.82 1014.62 1014.41 1014.37 1014.16 1014.43 1014.83 1014.99 1014.37 1014.27 1014.15 1014.45 1014.49 1014.45 1014.45 1014.26 1014.17 1013.86 1013.33 1012.70 1012.23 1010.63 1009.79 1008.82 1007.82 1007.32 1007.81 1008.49 1009.17 1010.01 1010.66 1011.79 1012.43 1012.73 1014.75
1017.76 1017.36 1016.98 1016.69 1016.43 1016.08 1015.86 1015.68 1015.30 1014.85 1014.43 1014.13 1013.90 1013.97 1013.88 1014.28 1014.52 1013.75 1013.94 1013.95 1013.75 1014.27 1014.39 1014.20 1014.03 1014.09 1013.95 1013.72 1013.29 1012.65 1011.59 1010.34 1009.49 1008.66 1007.89 1007.80 1007.98 1008.88 1009.86 1010.53 1011.72 1012.76 1013.37 1014.01 1015.16
1017.91 1017.50 1017.16 1016.88 1016.60 1016.37 1016.13 1015.80 1015.47 1015.16 1014.66 1013.97 1013.64 1013.55 1013.40 1013.99 1014.38 1012.90 1012.88 1013.35 1013.69 1014.14 1014.12 1013.74 1013.64 1013.74 1013.65 1013.25 1012.91 1012.42 1011.34 1010.24 1009.39 1009.07 1008.33 1008.21 1008.47 1009.16 1010.02 1010.90 1011.26 1012.59 1013.77 1014.66 1015.51
1017.91 1017.68 1017.43 1017.08 1016.79 1016.50 1016.28 1016.02 1015.70 1015.35 1014.78 1014.22 1013.74 1013.23 1013.41 1013.53 1013.72 1012.25 1011.98 1012.87 1013.42 1014.16 1014.22 1013.76 1013.46 1013.36 1013.38 1012.90 1012.43 1012.15 1011.64 1010.42 1009.85 1009.47 1009.05 1008.65 1008.90 1009.54 1010.29 1011.07 1010.67 1011.76 1013.25 1014.37 1015.35
1017.95 1017.75 1017.51 1017.16 1016.79 1016.55 1016.34 1016.07 1015.81 1015.62 1015.05 1014.41 1014.13 1013.78 1014.03 1013.89 1013.57 1012.93 1012.48 1013.12 1013.81 1014.25 1014.16 1013.97 1013.49 1013.16 1012.87 1012.49 1012.20 1011.95 1011.35 1010.78 1010.39 1010.12 1009.62 1008.94 1009.39 1009.97 1011.00 1011.27 1011.48 1012.23 1013.37 1014.31 1015.07
1017.95 1017.73 1017.44 1017.08 1016.79 1016.53 1016.36 1016.18 1015.91 1015.66 1015.16 1014.68 1014.30 1014.16 1013.98 1013.96 1014.14 1013.56 1013.66 1013.60 1013.74 1014.08 1014.10 1014.15 1013.45 1013.15 1012.82 1012.08 1011.74 1011.51 1011.34 1010.90 1010.87 1010.64 1010.03 1009.79 1010.13 1010.42 1011.51 1011.58 1012.14 1012.71 1013.53 1014.22 1014.71
1017.91 1017.70 1017.35 1016.99 1016.69 1016.43 1016.13 1015.97 1015.92 1015.62 1015.26 1014.85 1014.51 1014.04 1014.30 1014.37 1013.77 1013.82 1013.82 1013.88 1013.92 1014.02 1014.01 1014.42 1014.50 1013.63 1012.51 1012.00 1011.49 1011.31 1011.65 1011.24 1011.24 1010.94 1010.68 1010.59 1011.19 1011.25 1011.41 1011.92 1012.57 1013.07 1013.48 1013.99 1014.37
1017.87 1017.58 1017.19 1016.83 1016.38 1016.14 1015.82 1015.65 1015.74 1015.58 1015.27 1014.98 1014.67 1014.16 1014.51 1014.39 1013.91 1014.14 1014.27 1014.53 1014.60 1014.74 1014.38 1014.77 1014.63 1014.14 1013.14 1012.07 1011.32 1011.31 1011.52 1011.77 1011.27 1011.15 1011.18 1011.50 1011.51 1011.59 1011.77 1012.06 1012.75 1013.12 1013.54 1013.90 1014.24
1017.73 1017.45 1017.00 1016.55 1015.95 1015.79 1015.38 1015.12 1015.39 1015.38 1015.15 1014.97 1014.96 1015.06 1015.11 1014.79 1014.48 1014.64 1014.66 1014.44 1015.02 1015.08 1014.87 1014.86 1015.28 1014.66 1013.26 1012.82 1011.85 1011.42 1011.26 1011.40 1011.48 1011.26 1011.20 1011.69 1011.50 1011.74 1011.75 1012.07 1012.70 1013.07 1013.65 1014.06 1014.40
1017.61 1017.34 1016.82 1016.35 1015.71 1015.31 1015.11 1014.93 1015.03 1015.19 1014.72 1014.57 1014.95 1015.67 1015.74 1015.49 1015.07 1015.14 1015.13 1014.80 1014.96 1015.17 1015.42 1015.55 1016.00 1015.64 1013.55 1012.77 1012.04 1011.37 1011.11 1011.12 1011.19 1011.48 1011.38 1011.75 1011.94 1011.88 1012.01 1012.20 1012.54 1012.96 1013.58 1014.17 1014.43
1017.41 1017.18 1016.74 1016.25 1015.74 1015.17 1014.76 1015.05 1015.64 1015.41 1014.72 1015.38 1015.33 1015.61 1015.92 1015.98 1015.72 1015.63 1015.75 1015.58 1015.35 1015.40 1015.53 1015.82 1015.57 1014.72 1013.31 1012.44 1011.94 1011.55 1011.06 1011.07 1010.89 1011.27 1011.44 1011.60 1011.93 1012.02 1012.18 1012.39 1012.50 1012.87 1013.23 1013.75 1014.15
1017.25 1017.00 1016.62 1016.12 1015.67 1015.13 1014.92 1014.82 1015.68 1015.86 1015.35 1015.10 1014.93 1015.15 1015.63 1015.78 1015.64 1015.85 1016.16 1016.21 1016.13 1015.81 1015.67 1016.16 1014.81 1013.80 1012.77 1012.02 1011.65 1011.17 1010.62 1011.16 1011.58 1011.54 1011.65 1011.59 1011.89 1011.74 1012.12 1012.35 1012.39 1012.55 1012.84 1013.25 1013.80
1017.09 1016.83 1016.39 1015.93 1015.50 1015.21 1015.04 1015.67 1015.65 1015.66 1015.19 1014.77 1014.39 1014.16 1014.69 1015.44 1015.70 1016.12 1016.25 1016.22 1016.20 1015.80 1015.44 1014.77 1013.56 1012.82 1011.98 1011.59 1011.58 1010.95 1010.53 1011.02 1011.19 1011.98 1011.78 1011.71 1012.18 1011.98 1012.00 1012.21 1012.33 1012.32 1012.55 1012.86 1013.45
1016.94 1016.57 1016.19 1015.66 1015.56 1014.77 1014.93 1015.55 1015.58 1015.60 1014.96 1014.41 1013.90 1013.38 1013.90 1014.56 1014.98 1015.24 1015.95 1015.97 1015.74 1015.30 1014.74 1014.61 1013.20 1012.13 1011.64 1011.53 1011.85 1010.96 1010.12 1009.91 1011.36 1012.18 1012.39 1012.17 1012.40 1011.93 1011.74 1012.07 1012.32 1012.53 1012.81 1013.06 1013.39
1016.76 1016.41 1016.00 1015.84 1015.45 1014.71 1015.38 1015.34 1015.41 1015.52 1014.70 1013.46 1012.93 1012.24 1012.76 1013.72 1014.60 1015.36 1015.57 1015.70 1015.07 1014.92 1015.02 1013.95 1012.80 1011.96 1011.86 1012.03 1012.03 1011.25 1009.98 1010.48 1011.72 1012.41 1012.76 1013.09 1012.88 1011.23 1011.60 1012.30 1012.10 1012.42 1013.04 1013.48 1013.98
1016.51 1016.14 1015.80 1014.96 1015.05 1015.14 1015.13 1015.22 1015.42 1015.29 1014.52 1013.11 1012.38 1012.67 1013.10 1013.62 1013.91 1014.29 1014.75 1014.82 1013.62 1013.81 1013.54 1013.59 1012.96 1012.69 1012.46 1012.13 1011.87 1011.39 1011.06 1011.45 1012.24 1013.07 1014.16 1014.23 1013.68 1012.50 1011.87 1011.45 1011.59 1011.85 1012.78 1013.70 1014.52
1016.29 1015.95 1015.86 1015.04 1014.92 1014.94 1014.97 1015.00 1015.15 1014.61 1014.15 1013.33 1012.57 1012.24 1012.55 1012.44 1013.06 1013.56 1013.40 1013.38 1013.26 1013.44 1013.38 1013.31 1013.46 1013.33 1012.78 1012.40 1012.37 1012.36 1012.02 1012.73 1014.05 1014.79 1015.71 1015.36 1014.63 1012.75 1012.18 1011.86 1012.22 1012.29 1013.02 1014.02 1014.90
1015.78 1015.62 1015.07 1014.66 1014.76 1014.90 1014.76 1014.79 1014.76 1014.66 1013.77 1013.17 1012.50 1011.89 1011.85 1011.97 1012.17 1012.35 1012.61 1012.82 1012.70 1012.58 1013.25 1013.55 1014.29 1013.90 1013.46 1013.23 1013.45 1013.07 1012.85 1013.05 1014.16 1015.37 1016.11 1016.14 1014.82 1012.91 1012.69 1012.50 1012.65 1012.71 1013.16 1014.25 1015.18
1015.35 1015.14 1014.55 1014.47 1014.72 1014.88 1014.74 1014.65 1015.04 1014.49 1013.96 1013.22 1012.22 1011.67 1011.57 1011.50 1011.58 1011.57 1012.24 1012.68 1013.03 1012.93 1013.35 1013.28 1014.33 1014.33 1013.93 1013.69 1013.65 1013.02 1012.72 1012.83 1013.65 1014.86 1015.43 1015.23 1014.00 1013.26 1012.85 1012.98 1013.06 1013.25 1013.74 1014.57 1015.33
1015.19 1014.49 1014.12 1014.29 1014.63 1014.72 1014.47 1014.92 1014.74 1014.54 1014.05 1013.20 1012.32 1011.75 1011.46 1011.54 1011.35 1011.32 1012.10 1013.11 1013.07 1013.01 1013.05 1012.72 1013.88 1014.34 1014.13 1013.98 1013.73 1013.58 1013.43 1013.10 1013.34 1014.77 1015.32 1014.81 1013.82 1013.41 1013.17 1013.25 1013.49 1013.84 1014.20 1014.71 1015.38
1015.20 1014.42 1014.14 1014.25 1014.63 1014.41 1014.52 1014.74 1014.44 1014.17 1014.07 1013.54 1012.79 1011.99 1011.83 1011.73 1011.60 1011.72 1012.49 1013.33 1013.43 1013.17 1012.93 1012.60 1012.67 1014.57 1014.31 1014.12 1014.06 1013.86 1013.33 1013.08 1013.22 1013.84 1014.17 1014.63 1014.35 1013.12 1013.32 1013.49 1013.86 1014.17 1014.61 1014.98 1015.51
1014.86 1014.34 1013.96 1014.12 1014.44 1013.84 1014.42 1014.48 1014.60 1014.01 1013.64 1013.40 1013.10 1012.56 1012.29 1012.03 1012.09 1012.16 1012.83 1013.59 1013.77 1013.67 1013.18 1012.93 1013.10 1014.36 1014.64 1014.58 1014.40 1014.38 1013.72 1013.22 1013.55 1014.02 1014.05 1014.06 1014.18 1013.58 1013.75 1013.85 1014.02 1014.29 1014.28 1014.64 1015.07
1014.96 1014.05 1013.64 1013.64 1013.86 1014.03 1014.40 1014.37 1014.29 1013.86 1013.77 1013.42 1013.08 1012.98 1012.61 1012.37 1012.51 1012.57 1013.19 1013.84 1013.90 1013.79 1014.01 1013.72 1013.39 1014.41 1014.94 1015.06 1014.73 1014.52 1013.76 1013.63 1013.44 1013.56 1014.02 1014.20 1014.37 1013.88 1013.77 1013.84 1013.96 1013.99 1014.06 1014.32 1014.63
1015.14 1014.26 1013.67 1013.44 1013.44 1013.39 1013.63 1013.92 1014.04 1014.16 1013.87 1013.67 1013.32 1013.03 1012.62 1012.47 1012.49 1012.92 1013.42 1013.83 1013.94 1013.93 1013.93 1013.92 1013.93 1014.31 1014.81 1014.66 1014.35 1014.29 1014.04 1014.00 1013.96 1014.40 1014.16 1014.30 1014.15 1014.12 1014.15 1014.26 1014.28 1014.29 1014.28 1014.47 1014.67
1015.24 1015.22 1015.10 1014.22 1013.87 1013.67 1013.61 1013.85 1013.85 1014.06 1013.93 1013.77 1013.44 1013.48 1013.38 1013.04 1013.10 1013.43 1013.68 1013.82 1013.98 1013.96 1013.82 1013.84 1014.60 1014.86 1015.01 1014.86 1014.57 1014.39 1014.22 1014.27 1014.35 1014.27 1014.42 1014.43 1014.29 1014.06 1014.17 1014.39 1014.48 1014.55 1014.53 1014.60 1014.75
1015.96 1015.79 1015.19 1014.69 1014.39 1013.89 1013.81 1013.99 1014.08 1014.34 1014.54 1014.16 1014.17 1014.18 1014.04 1014.33 1014.64 1014.48 1014.45 1014.46 1014.57 1014.02 1014.11 1014.16 1014.91 1015.20 1015.27 1015.06 1014.77 1014.54 1014.26 1014.23 1014.43 1014.38 1014.28 1014.29 1014.32 1014.05 1014.21 1014.49 1014.80 1015.05 1014.96 1014.93 1014.92
1016.14 1015.90 1015.76 1015.02 1014.37 1014.10 1014.22 1014.34 1014.50 1014.62 1015.01 1015.01 1015.06 1014.91 1015.18 1015.53 1015.32 1015.09 1014.89 1014.96 1015.02 1015.00 1014.84 1014.90 1015.25 1015.65 1015.60 1015.16 1014.82 1014.63 1013.92 1014.03 1014.07 1013.87 1013.86 1014.12 1014.26 1014.22 1014.56 1014.91 1015.11 1015.23 1015.32 1015.42 1015.42
Wind_Speed
17 18 19 18 17 14 11 9 8 9 11 13 14 14 15 13 11 13 18 11 20 2 1 10 10 11 8 6 11 5 4 9 13 12 8 8 8 2 3 7 5 6 3 13 22
15 16 17 19 18 15 14 12 11 9 9 9 10 12 13 8 12 20 18 20 14 6 6 13 13 12 7 8 6 6 4 8 7 12 6 8 9 9 5 9 6 8 15 19 17
16 16 15 16 16 15 16 14 12 12 12 10 5 7 8 9 9 11 21 21 12 10 12 11 12 13 11 7 11 7 5 11 9 1 8 10 8 8 5 6 9 13 16 15 15
15 15 15 13 12 12 13 13 10 9 10 11 9 5 10 15 5 9 19 20 15 13 11 12 13 14 10 12 12 7 14 14 6 5 5 8 6 8 5 3 4 20 19 15 13
13 14 15 13 11 10 10 10 8 9 10 9 8 7 6 7 4 9 6 11 10 10 13 14 14 12 12 13 12 17 11 9 5 5 7 5 5 5 7 5 10 15 16 14 12
13 14 15 15 14 11 9 5 7 7 10 10 6 3 0 6 6 6 4 11 10 11 10 9 9 13 10 12 14 12 17 5 2 6 3 4 4 6 5 5 10 10 11 11 11
13 14 15 15 15 14 12 10 5 4 8 14 9 4 9 3 1 4 1 7 7 8 8 0 8 6 5 10 12 11 10 5 6 6 3 1 3 2 9 8 9 9 10 10 10
14 13 15 16 16 14 13 11 7 3 8 11 11 4 3 7 3 2 6 4 1 2 2 3 10 7 3 9 8 15 8 6 8 9 3 2 6 7 8 9 10 9 8 8 8
15 14 14 16 18 15 12 8 10 9 8 9 3 5 4 9 2 4 6 6 6 0 4 5 6 6 5 4 6 8 9 11 6 9 6 7 3 8 8 8 9 9 8 8 7
15 15 15 16 18 16 11 2 11 9 9 5 2 4 1 2 4 4 4 5 3 7 4 2 4 6 5 5 8 11 14 15 8 7 5 7 5 7 7 6 9 9 9 9 8
14 15 16 15 16 17 6 4 3 3 8 4 6 3 1 2 3 6 4 3 3 3 8 4 4 9 10 11 10 13 16 13 9 8 6 10 8 8 7 6 7 9 9 10 9
12 14 16 17 17 13 7 3 2 3 3 4 1 7 7 4 2 5 3 3 1 6 9 7 12 16 16 11 15 15 16 8 7 5 2 9 7 9 9 6 8 8 9 10 9
12 12 14 16 16 6 4 3 1 1 3 5 2 2 6 5 4 4 5 3 2 7 12 10 8 12 7 7 10 15 8 7 9 5 2 8 3 5 7 6 8 7 5 6 10
12 12 13 18 4 1 3 3 2 2 2 5 3 1 6 5 3 14 14 1 2 3 13 5 8 9 7 4 5 11 1 11 15 7 5 2 3 9 11 10 8 8 6 6 2
12 12 12 6 6 2 3 2 2 3 3 6 6 10 5 3 8 2 6 7 3 10 5 3 5 7 7 3 3 5 4 11 10 5 7 3 5 3 10 7 12 10 10 8 5
13 13 13 2 4 3 2 1 3 1 3 2 2 6 5 9 2 8 8 12 3 7 5 2 3 6 3 2 1 8 2 7 5 4 4 3 4 4 5 9 6 10 9 9 8
14 13 6 4 2 2 2 3 1 5 4 3 3 2 5 4 8 9 6 4 3 3 2 5 4 2 3 5 6 3 2 2 5 4 5 4 4 7 4 7 5 4 10 10 9
14 7 5 3 2 2 3 2 6 4 5 2 3 7 1 2 3 8 7 4 3 2 3 5 0 7 6 4 1 5 1 5 7 5 4 5 5 6 4 6 5 5 10 10 8
11 3 3 4 2 2 3 5 3 4 3 6 7 3 1 2 1 3 4 3 4 6 2 5 3 2 4 3 2 4 2 2 7 3 6 5 5 4 3 6 3 3 8 9 8
3 2 3 3 3 3 1 3 2 3 5 4 4 3 3 5 3 3 3 2 3 2 1 4 6 3 2 3 2 2 5 3 4 4 3 4 2 4 2 5 5 3 5 7 7
3 3 2 4 2 2 3 2 2 3 2 4 6 5 3 4 4 3 5 3 7 6 7 5 6 1 2 1 3 2 3 2 2 3 4 5 5 2 5 4 4 5 5 5 7
2 1 3 4 0 2 2 3 2 2 3 2 3 4 5 5 5 4 4 6 6 6 5 4 4 4 4 3 2 3 4 3 4 1 2 5 5 5 7 6 6 5 0 5 5
3 1 3 2 1 2 1 2 3 3 3 4 3 4 4 3 1 4 5 3 5 5 4 7 3 4 3 2 1 4 2 3 2 4 3 5 2 3 5 5 5 4 2 3 5
3 2 1 1 2 2 2 2 3 1 0 3 3 4 4 2 3 3 3 1 1 2 3 2 4 4 4 3 1 3 3 3 2 4 2 1 3 4 5 7 8 6 4 5 5
1 2 1 3 4 3 1 2 1 2 1 2 1 6 4 3 1 3 1 4 2 1 2 2 4 3 4 3 3 3 4 4 3 2 3 1 5 7 6 6 5 5 6 4 5
3 3 2 1 2 6 2 3 4 2 6 3 4 4 8 5 6 6 7 6 4 3 3 4 1 2 2 2 1 1 4 6 5 3 4 4 5 4 4 5 6 6 7 6 7
0 2 2 1 1 3 2 3 4 3 2 4 5 5 6 3 5 3 3 3 3 4 5 3 2 3 1 1 4 4 6 8 5 7 5 5 2 2 5 6 5 6 6 7 7
Wind_Direction
9 11 9 11 15 10 1 348 326 307 296 283 273 272 267 252 248 236 236 235 221 156 186 253 215 218 223 250 248 246 255 218 215 233 241 119 132 34 27 116 83 48 354 127 135
3 5 4 4 7 9 3 354 348 354 354 309 273 259 249 241 231 236 231 230 226 171 200 219 204 209 204 210 223 207 224 232 220 249 248 146 140 116 155 125 95 81 87 111 131
360 360 356 4 9 8 6 11 12 2 8 348 309 288 239 171 227 254 230 222 210 195 245 222 216 204 212 208 219 219 238 252 226 342 5 147 151 139 187 170 168 154 139 140 149
357 352 348 347 350 356 360 351 357 360 5 15 13 33 144 167 186 333 195 201 187 209 236 246 231 203 210 215 203 258 227 263 1 15 327 147 141 152 220 73 353 147 147 148 164
349 344 341 336 333 331 350 348 333 360 8 26 22 65 144 194 19 357 141 178 185 198 211 231 221 212 210 208 214 215 242 233 32 332 288 149 137 171 105 93 88 128 141 157 167
337 337 335 334 329 328 309 318 331 344 16 17 15 346 353 179 346 9 243 175 186 200 204 230 220 232 220 240 214 197 240 160 176 229 269 144 132 141 109 132 109 129 149 164 168
327 334 331 330 322 319 303 275 306 327 18 18 11 291 52 354 189 43 280 191 204 214 193 89 338 302 236 231 219 226 214 111 216 181 166 285 112 280 134 144 137 154 155 162 167
321 330 330 326 318 323 305 284 221 278 339 348 10 309 84 11 359 141 118 68 258 58 281 72 6 300 269 323 247 210 159 174 179 174 119 155 190 154 161 151 160 158 154 158 169
320 326 327 322 319 327 310 276 216 245 282 305 43 352 111 313 27 55 3 140 130 355 38 75 54 308 251 230 218 216 186 196 144 194 134 187 182 151 163 176 161 154 157 163 171
320 322 324 323 322 328 330 283 197 242 234 247 128 126 43 351 23 48 28 88 136 136 85 138 127 282 237 196 199 195 211 198 146 189 183 195 101 133 172 192 168 166 166 177 180
322 322 322 323 323 319 340 146 177 189 59 58 336 125 329 309 284 65 28 78 99 208 177 208 176 222 231 215 228 202 224 192 133 164 150 188 153 167 179 191 218 173 180 181 186
323 322 322 322 324 310 288 34 66 342 114 106 313 110 164 206 108 72 58 95 128 199 172 165 210 218 223 217 226 234 217 171 68 138 152 183 218 157 171 204 211 198 187 180 174
325 323 324 321 323 297 79 65 253 242 241 81 289 233 172 168 59 87 154 139 263 215 210 172 198 221 196 203 253 243 241 181 130 154 259 100 280 167 186 199 214 226 196 189 178
331 329 328 323 303 354 88 85 198 208 189 181 187 101 132 220 59 171 200 166 40 258 192 190 221 192 165 187 38 258 299 127 129 131 162 172 247 200 182 200 205 213 215 234 164
328 331 326 331 307 325 28 347 165 235 50 338 152 145 157 116 147 72 192 193 230 141 222 202 199 171 153 64 355 307 352 125 152 152 105 213 70 264 151 203 218 204 195 190 204
324 327 327 233 228 61 332 262 221 357 22 19 93 90 131 131 248 150 207 212 310 168 124 75 314 22 54 36 179 281 169 129 146 102 56 322 112 251 176 215 196 183 169 143 105
316 310 296 305 342 346 306 226 344 63 231 31 341 101 176 147 165 191 200 206 264 92 34 88 60 128 340 78 356 3 192 80 37 30 192 343 59 220 74 43 32 50 126 120 125
316 297 200 289 328 309 227 245 61 261 33 312 238 259 152 299 152 184 204 177 62 315 165 129 298 352 328 67 98 268 324 155 149 167 201 18 218 254 100 62 34 347 123 123 143
320 200 210 149 226 240 246 45 145 360 344 332 291 256 133 149 275 192 64 56 34 12 26 126 60 167 40 26 59 331 295 339 109 17 82 202 249 36 117 94 61 142 122 144 166
296 221 122 106 173 241 86 98 47 353 333 285 349 324 49 0 318 1 69 349 11 53 223 291 99 12 105 241 186 207 305 25 346 116 135 289 134 203 106 155 152 160 172 168 167
250 251 137 129 163 232 85 116 82 86 1 331 349 337 73 353 323 42 47 54 12 325 293 318 113 148 253 29 45 321 279 263 99 82 128 129 269 85 116 63 162 191 196 205 174
304 267 173 150 324 65 55 5 230 33 180 263 255 329 350 351 14 58 73 32 347 297 335 29 114 107 82 92 35 303 304 306 103 266 35 133 274 46 83 85 76 19 177 206 182
317 322 195 174 64 105 185 114 10 3 43 345 14 351 315 24 56 37 77 6 5 32 21 345 81 90 5 18 146 262 178 334 13 36 192 122 254 132 134 132 155 142 146 203 187
306 4 339 126 243 23 161 127 132 182 53 304 310 243 273 77 30 75 96 97 330 51 258 282 52 80 151 143 311 177 162 258 3 92 194 141 153 158 23 42 16 15 10 355 256
6 74 50 345 28 40 342 298 102 59 289 281 177 16 336 359 61 73 49 176 193 300 244 56 96 81 91 55 18 21 155 168 184 289 109 18 11 330 54 18 1 351 354 342 312
10 349 211 102 267 281 151 37 25 112 356 30 55 4 24 62 11 22 344 23 46 319 38 341 108 88 178 167 135 281 236 185 193 270 301 314 298 54 62 41 19 11 3 350 340
124 177 260 196 281 281 36 58 71 340 103 51 342 315 64 41 19 5 48 68 58 11 15 27 114 44 280 251 317 308 210 187 180 189 182 180 114 44 23 12 349 347 352 341 336